sat.trackr.live / text

‹ back to catalog

QIANFAN-43

NORAD 62244 · 2024-232H

PAYLOAD ACTIVE UNKNOWN

§ Identity

Operator
Country
PRC
Launch date
2024-12-05
Launch site
TAISC
Launch vehicle
Mass (kg)
RCS (m²)

External: N2YO · Heavens-Above · Gunter

§ Orbital elements

Epoch: 2026-05-25T03:24:12.803040Z

Period
106.59 min
Inclination
89.0103°
Eccentricity
0.0017517
Mean motion
13.51005546 rev/d
Perigee alt
1,055.5 km
Apogee alt
1,081.6 km
Semi-major
7,446.7 km
B*
1.4455e-4
RAAN
24.8446°
Arg perigee
83.9115°
Mean anomaly
276.4032°
Rev number
8,992

§ Raw data

QIANFAN-431 62244U 24232H   26145.14181485  .00000106  00000+0  14455-3 0  99992 62244  89.0103  24.8446 0017517  83.9115 276.4032 13.51005546 89929

JSON: /api/v1/satellites/62244 · /tle

For live sub-satellite position, see the globe view (requires WebGL).

§ Visibility from observer

Set your observer location to see the next 7 days of passes ≥ 10°. The values pass through the URL so the page stays shareable.

No JS? Fill the form by hand. The geolocation button needs JavaScript.